sat.trackr.live / text

‹ back to catalog

QIANFAN-8

NORAD 60386 · 2024-140H

PAYLOAD ACTIVE UNKNOWN

§ Identity

Operator
Country
PRC
Launch date
2024-08-06
Launch site
TAISC
Launch vehicle
Mass (kg)
RCS (m²)

External: N2YO · Heavens-Above · Gunter

§ Orbital elements

Epoch: 2026-09-22T21:19:42.668256Z

Period
106.59 min
Inclination
88.9670°
Eccentricity
0.0018728
Mean motion
13.51026126 rev/d
Perigee alt
1,054.5 km
Apogee alt
1,082.4 km
Semi-major
7,446.6 km
B*
3.3951e-5
RAAN
269.7768°
Arg perigee
96.4916°
Mean anomaly
263.8369°
Rev number
10,571

§ Raw data

QIANFAN-81 60386U 24140H   26265.88868829  .00000034  00000+0  33951-4 0  99932 60386  88.9670 269.7768 0018728  96.4916 263.8369 13.51026126105717

JSON: /api/v1/satellites/60386 · /tle

For live sub-satellite position, see the globe view (requires WebGL).

§ Visibility from observer

Set your observer location to see the next 7 days of passes ≥ 10°. The values pass through the URL so the page stays shareable.

No JS? Fill the form by hand. The geolocation button needs JavaScript.